﻿_id,日時,平均風速(m/s),平均風向,最大瞬間風速(m/s),最大風速時風向,気温(℃),湿度(%),10分間移動積算雨量(mm),1時間移動積算雨量(mm),日雨量(mm),累計雨量(mm)
1,2021-08-09T00:00:00,1.2,西南西,1.9,西,24.1,97.4,0,0,24,24
2,2021-08-09T00:01:00,1.2,西南西,1.9,西,24.2,97.5,0,0,0,24
3,2021-08-09T00:02:00,1.2,西,1.9,西,24.2,97.6,0,0,0,24
4,2021-08-09T00:03:00,1.2,西,1.9,西,24.2,97.6,0,0,0,24
5,2021-08-09T00:04:00,1.2,西,1.9,西,24.2,97.5,0,0,0,24
6,2021-08-09T00:05:00,1.2,西,1.9,西,24.2,97.6,0,0,0,24
7,2021-08-09T00:06:00,1.1,西,1.9,西,24.2,97.6,0,0,0,24
8,2021-08-09T00:07:00,1.1,西,1.9,西,24.1,97.6,0,0,0,24
9,2021-08-09T00:08:00,1,西,1.9,西南西,24.2,97.6,0,0,0,24
10,2021-08-09T00:09:00,1,西,1.5,西南西,24.1,97.6,0,0,0,24
11,2021-08-09T00:10:00,1,西,1.5,北西,24.1,97.6,0,0,0,24
12,2021-08-09T00:11:00,1,西,1.8,西北西,24.1,97.6,0,0,0,24
13,2021-08-09T00:12:00,1.1,西,1.9,西北西,24.1,97.6,0,0,0,24
14,2021-08-09T00:13:00,1.1,西北西,1.9,西北西,24,97.6,0,0,0,24
15,2021-08-09T00:14:00,1.1,西北西,1.9,西北西,24,97.6,0,0,0,24
16,2021-08-09T00:15:00,1.2,西北西,1.9,西北西,24,97.6,0,0,0,24
17,2021-08-09T00:16:00,1.2,西北西,1.9,西北西,24.1,97.7,0,0,0,24
18,2021-08-09T00:17:00,1.2,西,1.9,西北西,24,97.6,0,0,0,24
19,2021-08-09T00:18:00,1.2,西,1.9,西北西,24,97.6,0,0,0,24
20,2021-08-09T00:19:00,1.2,西,1.9,西北西,24.1,97.7,0,0,0,24
21,2021-08-09T00:20:00,1.2,西,1.9,西北西,24.1,97.7,0,0,0,24
22,2021-08-09T00:21:00,1.2,西,1.9,西北西,24.1,97.7,0,0,0,24
23,2021-08-09T00:22:00,1.1,西,1.6,西北西,24.1,97.7,0,0,0,24
24,2021-08-09T00:23:00,1.1,西,1.5,西,24.1,97.7,0,0,0,24
25,2021-08-09T00:24:00,1.1,西南西,1.5,西,24.1,97.7,0,0,0,24
26,2021-08-09T00:25:00,1,西南西,1.5,西,24.1,97.7,0,0,0,24
27,2021-08-09T00:26:00,1,西南西,1.5,西,24.1,97.8,0,0,0,24
28,2021-08-09T00:27:00,0.9,西南西,1.5,西,24.2,97.7,0,0,0,24
29,2021-08-09T00:28:00,0.8,西南西,1.5,西,24.2,97.7,0,0,0,24
30,2021-08-09T00:29:00,0.7,西南西,1.5,西,24.2,97.7,0,0,0,24
31,2021-08-09T00:30:00,0.6,西南西,1.5,西,24.2,97.7,0,0,0,24
32,2021-08-09T00:31:00,0.5,西南西,1.5,西,24.3,97.7,0,0,0,24
33,2021-08-09T00:32:00,0.4,西南西,1.3,南西,24.3,97.7,0,0,0,24
34,2021-08-09T00:33:00,0.4,西,1.1,南西,24.5,97.7,0,0,0,24
35,2021-08-09T00:34:00,0.4,西北西,1,東北東,24.5,97.7,0,0,0,24
36,2021-08-09T00:35:00,0.4,北北西,1,東北東,24.6,97.7,0,0,0,24
37,2021-08-09T00:36:00,0.4,北,1,東北東,24.8,97.7,0,0,0,24
38,2021-08-09T00:37:00,0.4,北,1,東北東,25,97.8,0,0,0,24
39,2021-08-09T00:38:00,0.5,北北東,1,東北東,24.9,97.4,0,0,0,24
40,2021-08-09T00:39:00,0.5,北北東,1.1,北東,24.7,96.7,0,0,0,24
41,2021-08-09T00:40:00,0.6,北北東,1.1,北東,24.6,96.1,0,0,0,24
42,2021-08-09T00:41:00,0.7,北東,1.1,北東,24.6,96.1,0,0,0,24
43,2021-08-09T00:42:00,0.7,北東,1.1,北東,24.6,96.2,0,0,0,24
44,2021-08-09T00:43:00,0.7,北東,1.1,北東,24.6,96.2,0,0,0,24
45,2021-08-09T00:44:00,0.7,北東,1.1,北東,24.6,96.3,0,0,0,24
46,2021-08-09T00:45:00,0.6,北東,1.1,北東,24.7,96.3,0,0,0,24
47,2021-08-09T00:46:00,0.7,北北東,1.1,北東,24.6,96.3,0,0,0,24
48,2021-08-09T00:47:00,0.7,北北東,1.1,北東,24.7,96.4,0,0,0,24
49,2021-08-09T00:48:00,0.6,北北東,1.1,北東,24.8,96.5,0,0,0,24
50,2021-08-09T00:49:00,0.6,北北東,1,北北東,24.7,96.2,0,0,0,24
51,2021-08-09T00:50:00,0.6,北北東,1,北北東,24.7,96.2,0,0,0,24
52,2021-08-09T00:51:00,0.6,北北東,1,北北東,24.8,96.3,0,0,0,24
53,2021-08-09T00:52:00,0.5,北北東,1,北北東,24.8,96.4,0,0,0,24
54,2021-08-09T00:53:00,0.5,北北東,1,北北東,24.7,96.1,0,0,0,24
55,2021-08-09T00:54:00,0.5,北北東,1,北北東,24.5,96,0,0,0,24
56,2021-08-09T00:55:00,0.5,北,1,北北東,24.5,96,0,0,0,24
57,2021-08-09T00:56:00,0.5,北,1,北北東,24.4,96.1,0,0,0,24
58,2021-08-09T00:57:00,0.6,北,1,北北東,24.3,96.1,0,0,0,24
59,2021-08-09T00:58:00,0.6,北,1.1,北北西,24.4,96.3,0,0,0,24
60,2021-08-09T00:59:00,0.6,北,1.1,北北西,24.3,96.5,0,0,0,24
61,2021-08-09T01:00:00,0.6,北北西,1.1,北北西,24.3,96.7,0,0,0,24
62,2021-08-09T01:01:00,0.6,北北西,1.1,北北西,24.3,96.8,0,0,0,24
63,2021-08-09T01:02:00,0.6,北北西,1.1,北北西,24.3,96.9,0,0,0,24
64,2021-08-09T01:03:00,0.7,北西,1.3,北西,24.4,97.1,0,0,0,24
65,2021-08-09T01:04:00,0.7,北西,1.4,北西,24.3,97,0,0,0,24
66,2021-08-09T01:05:00,0.7,北西,1.4,北西,24.3,97.1,0,0,0,24
67,2021-08-09T01:06:00,0.7,北西,1.4,北西,24.3,97.1,0,0,0,24
68,2021-08-09T01:07:00,0.7,北西,1.4,北西,24.3,97.2,0,0,0,24
69,2021-08-09T01:08:00,0.7,北西,1.4,北西,24.4,97.3,0,0,0,24
70,2021-08-09T01:09:00,0.7,北西,1.6,北,24.3,97.2,0,0,0,24
71,2021-08-09T01:10:00,0.8,北北西,1.6,北,24.4,97.3,0,0,0,24
72,2021-08-09T01:11:00,0.9,北北西,1.9,北北西,24.5,97.4,0,0,0,24
73,2021-08-09T01:12:00,1,北北西,2.5,北,24.5,97.4,0,0,0,24
74,2021-08-09T01:13:00,1,北,2.6,北,24.5,97.3,0,0,0,24
75,2021-08-09T01:14:00,1,北,2.6,北,24.4,97.3,0,0,0,24
76,2021-08-09T01:15:00,1.2,北,2.6,北,24.3,97.1,0,0,0,24
77,2021-08-09T01:16:00,1.2,北,2.6,北,24.4,97.1,0,0,0,24
78,2021-08-09T01:17:00,1.3,北北東,2.6,北,24.4,97.3,0,0,0,24
79,2021-08-09T01:18:00,1.3,北北東,2.6,北,24.4,97.2,0,0,0,24
80,2021-08-09T01:19:00,1.3,北北東,2.6,北,24.5,97.3,0,0,0,24
81,2021-08-09T01:20:00,1.2,北北東,2.6,北,24.6,97.4,0,0,0,24
82,2021-08-09T01:21:00,1.1,北北東,2.6,北,24.5,97.4,0,0,0,24
83,2021-08-09T01:22:00,1,北東,2.6,北,24.3,97.1,0,0,0,24
84,2021-08-09T01:23:00,0.9,北東,2.4,北北東,24.3,96.9,0,0,0,24
85,2021-08-09T01:24:00,0.8,北東,2.4,北北東,24.2,96.9,0,0,0,24
86,2021-08-09T01:25:00,0.7,東北東,2.2,北北東,24.2,97,0,0,0,24
87,2021-08-09T01:26:00,0.6,南南西,1.9,北東,24.2,97.2,0,0,0,24
88,2021-08-09T01:27:00,0.5,南西,1.9,北東,24.2,97.2,0,0,0,24
89,2021-08-09T01:28:00,0.5,南西,1.2,南,24.2,97.3,0,0,0,24
90,2021-08-09T01:29:00,0.5,南西,1.2,南,24.2,97.3,0,0,0,24
91,2021-08-09T01:30:00,0.6,南南西,1.2,南,24.2,97.3,0,0,0,24
92,2021-08-09T01:31:00,0.6,南南西,1.6,南東,24.2,97.4,0,0,0,24
93,2021-08-09T01:32:00,0.7,南南西,1.6,南東,24.2,97.5,0.5,0.5,0.5,24.5
94,2021-08-09T01:33:00,0.6,南南西,1.6,南東,24.3,97.6,0.5,0.5,0.5,24.5
95,2021-08-09T01:34:00,0.6,南,1.6,南東,24.3,97.6,0.5,0.5,0.5,24.5
96,2021-08-09T01:35:00,0.7,南南東,2,北東,24.4,97.7,0.5,0.5,0.5,24.5
97,2021-08-09T01:36:00,0.8,南東,2,北東,24.5,97.7,1,1,1,25
98,2021-08-09T01:37:00,0.8,東南東,2,北東,24.5,97.7,1,1,1,25
99,2021-08-09T01:38:00,0.8,東,2,北東,24.5,97.7,1,1,1,25
100,2021-08-09T01:39:00,0.7,北東,2,北東,24.6,97.7,1,1,1,25
101,2021-08-09T01:40:00,0.7,北東,2,北東,24.6,97.6,1,1,1,25
102,2021-08-09T01:41:00,0.7,北北東,2,北東,24.5,97.5,1.5,1.5,1.5,25.5
103,2021-08-09T01:42:00,0.7,北北東,2,北東,24.4,97.4,1,1.5,1.5,25.5
104,2021-08-09T01:43:00,0.8,北,2,北東,24.4,97.4,1,1.5,1.5,25.5
105,2021-08-09T01:44:00,0.9,北,2.1,北西,24.3,97.3,1,1.5,1.5,25.5
106,2021-08-09T01:45:00,0.9,北,2.1,北西,24.3,97.3,1,1.5,1.5,25.5
107,2021-08-09T01:46:00,0.8,北北西,2.1,北西,24.4,97.3,0.5,1.5,1.5,25.5
108,2021-08-09T01:47:00,0.8,北北西,2.1,北西,24.3,97.3,0.5,1.5,1.5,25.5
109,2021-08-09T01:48:00,0.8,北北西,2.1,北西,24.3,97.3,0.5,1.5,1.5,25.5
110,2021-08-09T01:49:00,0.8,北北西,2.1,北西,24.3,97.3,0.5,1.5,1.5,25.5
111,2021-08-09T01:50:00,0.9,北北西,2.1,北西,24.3,97.3,0.5,1.5,1.5,25.5
112,2021-08-09T01:51:00,1,北北西,2.1,北西,24.2,97.3,0,1.5,1.5,25.5
113,2021-08-09T01:52:00,0.9,北北西,2.1,北西,24.3,97.5,0,1.5,1.5,25.5
114,2021-08-09T01:53:00,0.8,北北西,2.1,北西,24.3,97.5,0,1.5,1.5,25.5
115,2021-08-09T01:54:00,0.8,北西,2,北北西,24.2,97.4,0,1.5,1.5,25.5
116,2021-08-09T01:55:00,0.7,北西,1.9,北西,24.3,97.5,0,1.5,1.5,25.5
117,2021-08-09T01:56:00,0.7,北北西,1.9,北西,24.4,97.7,0,1.5,1.5,25.5
118,2021-08-09T01:57:00,0.7,北北西,1.9,北西,24.4,97.6,0,1.5,1.5,25.5
119,2021-08-09T01:58:00,0.7,北北西,1.9,北西,24.3,97.6,0,1.5,1.5,25.5
120,2021-08-09T01:59:00,0.7,北,1.9,北西,24.3,97.5,0,1.5,1.5,25.5
121,2021-08-09T02:00:00,0.6,南南東,1.5,北西,24.3,97.5,0,1.5,1.5,25.5
122,2021-08-09T02:01:00,0.6,南南東,1.2,北北東,24.2,97.5,0,1.5,1.5,25.5
123,2021-08-09T02:02:00,0.5,南南東,1.2,北北東,24.3,97.5,0,1.5,1.5,25.5
124,2021-08-09T02:03:00,0.4,南南東,1.2,北北東,24.3,97.6,0,1.5,1.5,25.5
125,2021-08-09T02:04:00,0.4,南南東,1.2,北北東,24.3,97.6,0,1.5,1.5,25.5
126,2021-08-09T02:05:00,0.4,南南東,1.2,北北東,24.3,97.6,0,1.5,1.5,25.5
127,2021-08-09T02:06:00,0.4,南,1.1,西南西,24.3,97.6,0,1.5,1.5,25.5
128,2021-08-09T02:07:00,0.4,南南西,1.1,西南西,24.3,97.6,0,1.5,1.5,25.5
129,2021-08-09T02:08:00,0.5,南西,1.4,北西,24.3,97.6,0,1.5,1.5,25.5
130,2021-08-09T02:09:00,0.6,西南西,2.1,北北西,24.3,97.7,0,1.5,1.5,25.5
131,2021-08-09T02:10:00,0.7,西,2.1,北北西,24.3,97.6,0,1.5,1.5,25.5
132,2021-08-09T02:11:00,0.8,西,2.1,北北西,24.3,97.6,0,1.5,1.5,25.5
133,2021-08-09T02:12:00,1,西北西,2.3,北北東,24.3,97.6,0,1.5,1.5,25.5
134,2021-08-09T02:13:00,1.1,北西,2.3,北北東,24.3,97.7,0,1.5,1.5,25.5
135,2021-08-09T02:14:00,1.2,北北西,2.5,北北東,24.3,97.7,0,1.5,1.5,25.5
136,2021-08-09T02:15:00,1.3,北北西,2.5,北北東,24.3,97.7,0,1.5,1.5,25.5
137,2021-08-09T02:16:00,1.4,北,2.5,北北東,24.3,97.6,0,1.5,1.5,25.5
138,2021-08-09T02:17:00,1.5,北,2.5,北北東,24.3,97.6,0,1.5,1.5,25.5
139,2021-08-09T02:18:00,1.6,北,2.5,北北東,24.3,97.7,0,1.5,1.5,25.5
140,2021-08-09T02:19:00,1.6,北,2.7,北北西,24.3,97.7,0,1.5,1.5,25.5
141,2021-08-09T02:20:00,1.6,北,2.7,北北西,24.3,97.7,0,1.5,1.5,25.5
142,2021-08-09T02:21:00,1.6,北,2.7,北北西,24.4,97.7,0,1.5,1.5,25.5
143,2021-08-09T02:22:00,1.5,北北西,2.7,北北西,24.5,97.7,0,1.5,1.5,25.5
144,2021-08-09T02:23:00,1.5,北北西,2.7,北北西,24.5,97.8,0,1.5,1.5,25.5
145,2021-08-09T02:24:00,1.4,北北西,2.7,北北西,24.5,97.7,0,1.5,1.5,25.5
146,2021-08-09T02:25:00,1.4,北西,2.7,北北西,24.5,97.7,0,1.5,1.5,25.5
147,2021-08-09T02:26:00,1.4,北西,2.7,北北西,24.5,97.7,0,1.5,1.5,25.5
148,2021-08-09T02:27:00,1.4,北西,2.8,北西,24.5,97.6,0,1.5,1.5,25.5
149,2021-08-09T02:28:00,1.4,北西,2.8,北西,24.5,97.6,0,1.5,1.5,25.5
150,2021-08-09T02:29:00,1.4,北西,2.8,北西,24.5,97.6,0,1.5,1.5,25.5
151,2021-08-09T02:30:00,1.4,西北西,2.8,北西,24.6,97.6,0,1.5,1.5,25.5
152,2021-08-09T02:31:00,1.5,西北西,2.8,北西,24.7,97.5,0,1.5,1.5,25.5
153,2021-08-09T02:32:00,1.5,西北西,2.8,北西,24.7,97.5,0,1,1.5,25.5
154,2021-08-09T02:33:00,1.5,西北西,2.8,北西,24.7,97.3,0,1,1.5,25.5
155,2021-08-09T02:34:00,1.4,西北西,2.8,北西,24.7,97.2,0,1,1.5,25.5
156,2021-08-09T02:35:00,1.3,西北西,2.8,北西,24.6,97,0,1,1.5,25.5
157,2021-08-09T02:36:00,1.2,西北西,2.8,北西,24.6,96.9,0,0.5,1.5,25.5
158,2021-08-09T02:37:00,1,西北西,2.4,北西,24.6,96.8,0.5,1,2,26
159,2021-08-09T02:38:00,1,西北西,2.4,北西,24.6,96.8,1.5,2,3,27
160,2021-08-09T02:39:00,0.9,北西,2.7,北北東,24.6,96.8,2,2.5,3.5,27.5
161,2021-08-09T02:40:00,1,北西,2.9,北東,24.6,96.9,3,3.5,4.5,28.5
162,2021-08-09T02:41:00,0.9,北北西,2.9,北東,24.6,96.8,3,3,4.5,28.5
163,2021-08-09T02:42:00,1,北,2.9,北東,24.6,96.9,3,3,4.5,28.5
164,2021-08-09T02:43:00,1.1,北,2.9,北東,24.5,96.8,3,3,4.5,28.5
165,2021-08-09T02:44:00,1.2,北,2.9,北東,24.4,96.8,3.5,3.5,5,29
166,2021-08-09T02:45:00,1.1,北東,2.9,北東,24.5,96.9,3.5,3.5,5,29
167,2021-08-09T02:46:00,1.1,北東,2.9,北東,24.5,97.1,3.5,3.5,5,29
168,2021-08-09T02:47:00,1.1,東北東,2.9,北東,24.6,97.3,3,3.5,5,29
169,2021-08-09T02:48:00,1.2,東,2.9,北東,24.6,97.4,2.5,4,5.5,29.5
170,2021-08-09T02:49:00,1.2,東南東,3.7,東,24.6,97.2,2,4,5.5,29.5
171,2021-08-09T02:50:00,1.2,南東,3.7,東,24.6,97.2,1.5,4.5,6,30
172,2021-08-09T02:51:00,1.2,南東,3.7,東,24.5,97.2,2,5,6.5,30.5
173,2021-08-09T02:52:00,1.2,南東,3.8,南東,24.5,97.2,2,5,6.5,30.5
174,2021-08-09T02:53:00,1.2,東南東,3.8,南東,24.5,97.2,2,5,6.5,30.5
175,2021-08-09T02:54:00,1.3,東南東,3.8,南東,24.5,97.2,1.5,5,6.5,30.5
176,2021-08-09T02:55:00,1.5,東南東,4,南東,24.5,97.2,2,5.5,7,31
177,2021-08-09T02:56:00,1.7,東南東,4,南東,24.5,97.2,2,5.5,7,31
178,2021-08-09T02:57:00,1.9,南東,4,南東,24.5,97.2,2.5,6,7.5,31.5
179,2021-08-09T02:58:00,1.9,南東,4,南東,24.5,97.2,2,6,7.5,31.5
180,2021-08-09T02:59:00,2,南東,4,南東,24.5,97.1,2,6,7.5,31.5
181,2021-08-09T03:00:00,2.2,南東,4.1,南南東,24.5,97.2,2,6.5,8,32
182,2021-08-09T03:01:00,2.3,南東,4.2,南東,24.6,97.1,1.5,6.5,8,32
183,2021-08-09T03:02:00,2.4,南東,4.2,南東,24.6,97.1,1.5,6.5,8,32
184,2021-08-09T03:03:00,2.5,南東,4.2,南東,24.5,97,1.5,6.5,8,32
185,2021-08-09T03:04:00,2.6,南東,4.2,南東,24.5,97,2,7,8.5,32.5
186,2021-08-09T03:05:00,2.5,南東,4.2,南東,24.5,96.9,1.5,7,8.5,32.5
187,2021-08-09T03:06:00,2.4,南東,4.2,南東,24.5,96.9,1.5,7,8.5,32.5
188,2021-08-09T03:07:00,2.4,南東,4.2,南東,24.5,96.9,1,7,8.5,32.5
189,2021-08-09T03:08:00,2.4,南東,4.2,南東,24.5,96.9,1.5,7.5,9,33
190,2021-08-09T03:09:00,2.3,南東,4.2,南東,24.5,96.9,1.5,7.5,9,33
191,2021-08-09T03:10:00,2.2,南東,4.2,南東,24.5,97,1,7.5,9,33
192,2021-08-09T03:11:00,2,南東,4.2,南東,24.6,97,1,7.5,9,33
193,2021-08-09T03:12:00,1.9,南東,5,東南東,24.5,96.9,1,7.5,9,33
194,2021-08-09T03:13:00,2.2,南東,8.7,南東,24.7,97,1.5,8,9.5,33.5
195,2021-08-09T03:14:00,2.3,南東,8.7,南東,24.7,97,1,8,9.5,33.5
196,2021-08-09T03:15:00,2.5,南東,8.7,南東,24.7,96.7,1.5,8.5,10,34
197,2021-08-09T03:16:00,2.9,南東,8.7,南東,24.7,96.5,1.5,8.5,10,34
198,2021-08-09T03:17:00,3,南東,8.7,南東,24.7,96.4,1.5,8.5,10,34
199,2021-08-09T03:18:00,3.1,南東,8.7,南東,24.9,96.3,1.5,9,10.5,34.5
200,2021-08-09T03:19:00,3.1,南東,8.7,南東,24.8,96.2,1.5,9,10.5,34.5
201,2021-08-09T03:20:00,3.2,南東,8.7,南東,24.8,95.9,1.5,9,10.5,34.5
202,2021-08-09T03:21:00,3.3,南東,8.7,南東,24.9,95.9,1.5,9,10.5,34.5
203,2021-08-09T03:22:00,3.4,南東,8.7,南東,24.9,95.8,1.5,9,10.5,34.5
204,2021-08-09T03:23:00,3.1,南東,6.8,南南東,24.8,95.6,1,9,10.5,34.5
205,2021-08-09T03:24:00,2.9,南東,6.8,南南東,24.8,95.7,1,9,10.5,34.5
206,2021-08-09T03:25:00,2.8,南東,6.8,南南東,24.8,95.7,0.5,9,10.5,34.5
207,2021-08-09T03:26:00,2.6,南東,6.6,南東,24.8,95.8,0.5,9,10.5,34.5
208,2021-08-09T03:27:00,2.4,南東,6.6,南東,24.9,95.8,0.5,9,10.5,34.5
209,2021-08-09T03:28:00,2.2,東南東,5.9,東南東,25,95.8,0.5,9.5,11,35
210,2021-08-09T03:29:00,2.4,東南東,5.9,東南東,25,95.7,0.5,9.5,11,35
211,2021-08-09T03:30:00,2.4,東南東,5.9,東南東,25,95.5,0.5,9.5,11,35
212,2021-08-09T03:31:00,2.6,南東,6.7,南南東,25,95.3,0.5,9.5,11,35
213,2021-08-09T03:32:00,3,南東,10,東南東,25,95.1,1,10,11.5,35.5
214,2021-08-09T03:33:00,3.2,南東,10,東南東,25.1,95.1,1,10,11.5,35.5
215,2021-08-09T03:34:00,3.3,南東,10,東南東,25.1,94.9,1.5,10.5,12,36
216,2021-08-09T03:35:00,3.4,南東,10,東南東,25,94.4,1.5,10.5,12,36
217,2021-08-09T03:36:00,3.7,南東,10,東南東,25.1,94.2,1.5,10.5,12,36
218,2021-08-09T03:37:00,4,南東,10,東南東,25,94.2,2,10.5,12.5,36.5
219,2021-08-09T03:38:00,4,南東,10,東南東,25,94.3,1.5,9.5,12.5,36.5
220,2021-08-09T03:39:00,3.8,南東,10,東南東,25,94.5,1.5,9,12.5,36.5
221,2021-08-09T03:40:00,3.8,南東,10,東南東,24.9,94.7,2,8.5,13,37
222,2021-08-09T03:41:00,3.7,南東,10,東南東,24.9,94.9,2,8.5,13,37
223,2021-08-09T03:42:00,3.4,南東,9.7,東,24.8,95.1,1.5,8.5,13,37
224,2021-08-09T03:43:00,3.2,南東,7.7,南東,24.8,95.2,2,9,13.5,37.5
225,2021-08-09T03:44:00,3.2,南東,7.7,南東,24.8,95.4,1.5,8.5,13.5,37.5
226,2021-08-09T03:45:00,3.1,南東,7.7,南東,24.9,95.5,1.5,8.5,13.5,37.5
227,2021-08-09T03:46:00,2.7,南東,6.3,東南東,24.8,95.5,1.5,8.5,13.5,37.5
228,2021-08-09T03:47:00,2.5,南東,5.9,南南東,24.8,95.5,1,8.5,13.5,37.5
229,2021-08-09T03:48:00,2.6,南東,8.3,東,24.9,95.7,1,8,13.5,37.5
230,2021-08-09T03:49:00,2.9,南東,8.3,東,25,95.7,1.5,8.5,14,38
231,2021-08-09T03:50:00,3,南東,8.3,東,24.9,95.4,1,8,14,38
232,2021-08-09T03:51:00,3.2,南東,8.9,南南東,24.9,95.2,1,7.5,14,38
233,2021-08-09T03:52:00,3.4,南東,8.9,南南東,25,95.3,1,7.5,14,38
234,2021-08-09T03:53:00,3.6,南東,8.9,南南東,25.1,95.2,0.5,7.5,14,38
235,2021-08-09T03:54:00,3.6,南東,8.9,南南東,25.1,95,0.5,7.5,14,38
236,2021-08-09T03:55:00,3.8,南東,8.9,南南東,25,94.7,0.5,7,14,38
237,2021-08-09T03:56:00,4.1,南東,8.9,南南東,25,94.5,0.5,7,14,38
238,2021-08-09T03:57:00,4.3,南東,8.9,南南東,25,94.5,1,7,14.5,38.5
239,2021-08-09T03:58:00,4.5,南東,8.9,南南東,25,94.5,1.5,7.5,15,39
240,2021-08-09T03:59:00,4.6,南東,8.9,南南東,25,94.6,1.5,8,15.5,39.5
241,2021-08-09T04:00:00,4.6,南東,8.9,南南東,24.9,94.7,1.5,7.5,15.5,39.5
242,2021-08-09T04:01:00,4.3,南東,7.5,南東,24.8,94.8,2,8,16,40
243,2021-08-09T04:02:00,3.9,南東,7.5,南東,24.6,95,2.5,8.5,16.5,40.5
244,2021-08-09T04:03:00,3.6,南東,7.5,南東,24.6,95.3,2.5,8.5,16.5,40.5
245,2021-08-09T04:04:00,3.4,南東,7.5,南東,24.7,95.7,2.5,8,16.5,40.5
246,2021-08-09T04:05:00,3.1,南東,7.5,南東,24.7,95.9,2.5,8,16.5,40.5
247,2021-08-09T04:06:00,2.8,南東,7.5,南東,24.7,95.9,3,8.5,17,41
248,2021-08-09T04:07:00,2.5,南東,7.5,南東,24.6,96,2.5,8.5,17,41
249,2021-08-09T04:08:00,2.2,南東,7.5,南東,24.6,96,2,8,17,41
250,2021-08-09T04:09:00,2,南東,5.9,南南東,24.6,96.2,1.5,8,17,41
251,2021-08-09T04:10:00,1.8,南東,4.3,南南東,24.6,96.2,1.5,8,17,41
252,2021-08-09T04:11:00,1.9,南東,4.3,南南東,24.6,96.2,1,8,17,41
253,2021-08-09T04:12:00,2,南南東,4.3,南南東,24.6,96.3,0.5,8,17,41
254,2021-08-09T04:13:00,2.1,南南東,4.3,南南東,24.6,96.3,0.5,7.5,17,41
255,2021-08-09T04:14:00,2.2,南東,4.3,南南東,24.6,96.4,0.5,7.5,17,41
256,2021-08-09T04:15:00,2.2,南東,4.3,南南東,24.6,96.5,0.5,7,17,41
257,2021-08-09T04:16:00,2.1,南東,4.3,南南東,24.6,96.6,0,7,17,41
258,2021-08-09T04:17:00,2.1,南東,4.3,南南東,24.6,96.5,0,7,17,41
259,2021-08-09T04:18:00,2.1,南東,4.3,南南東,24.5,96.5,0,6.5,17,41
260,2021-08-09T04:19:00,1.9,南東,3.5,東,24.5,96.5,0,6.5,17,41
261,2021-08-09T04:20:00,1.7,南東,3.5,東,24.5,96.5,0,6.5,17,41
262,2021-08-09T04:21:00,1.6,南東,3.5,東,24.5,96.6,0,6.5,17,41
263,2021-08-09T04:22:00,1.5,南東,3.5,東,24.5,96.7,0,6.5,17,41
264,2021-08-09T04:23:00,1.4,南東,3.5,東,24.5,96.8,0,6.5,17,41
265,2021-08-09T04:24:00,1.3,南南東,3.5,東,24.5,96.8,0,6.5,17,41
266,2021-08-09T04:25:00,1.1,南南東,2.2,南南西,24.5,96.9,0,6.5,17,41
267,2021-08-09T04:26:00,1.1,南南東,2.2,南南西,24.6,96.9,0,6.5,17,41
268,2021-08-09T04:27:00,1.1,南南東,2.2,南南西,24.6,97,0,6.5,17,41
269,2021-08-09T04:28:00,1,南南東,2,南南東,24.6,96.9,0,6,17,41
270,2021-08-09T04:29:00,0.8,南東,1.9,南東,24.7,97,0,6,17,41
271,2021-08-09T04:30:00,0.8,南東,1.9,南東,24.6,96.9,0,6,17,41
272,2021-08-09T04:31:00,0.7,南東,1.8,南南東,24.6,96.8,0,6,17,41
273,2021-08-09T04:32:00,0.8,南東,2.1,東南東,24.6,96.8,0,5.5,17,41
274,2021-08-09T04:33:00,0.8,南東,2.4,東南東,24.6,96.8,0,5.5,17,41
275,2021-08-09T04:34:00,0.9,南東,2.6,南南東,24.5,96.7,0,5,17,41
276,2021-08-09T04:35:00,1,東南東,2.6,南南東,24.6,96.7,0,5,17,41
277,2021-08-09T04:36:00,1.1,東南東,2.6,南南東,24.6,96.8,0.5,5.5,17.5,41.5
278,2021-08-09T04:37:00,1.1,東南東,2.6,南南東,24.6,96.9,0.5,5,17.5,41.5
279,2021-08-09T04:38:00,1.2,東南東,2.6,南南東,24.6,96.9,0.5,5,17.5,41.5
280,2021-08-09T04:39:00,1.3,東南東,2.6,南南東,24.6,96.9,0.5,5,17.5,41.5
281,2021-08-09T04:40:00,1.4,東南東,2.6,南南東,24.6,97,0.5,4.5,17.5,41.5
282,2021-08-09T04:41:00,1.5,東南東,3.1,東南東,24.6,97,0.5,4.5,17.5,41.5
283,2021-08-09T04:42:00,1.5,東南東,3.1,東南東,24.5,97,1,5,18,42
284,2021-08-09T04:43:00,1.4,東南東,3.1,東南東,24.5,97,1,4.5,18,42
285,2021-08-09T04:44:00,1.3,東,3.1,東南東,24.5,97.1,1,4.5,18,42
286,2021-08-09T04:45:00,1.2,東,3.1,東南東,24.5,97.1,1,4.5,18,42
287,2021-08-09T04:46:00,1.1,東,3.1,東南東,24.5,97.1,0.5,4.5,18,42
288,2021-08-09T04:47:00,1.1,東,3.1,東南東,24.5,97.2,1,5,18.5,42.5
289,2021-08-09T04:48:00,1,東,3.1,東南東,24.5,97.3,1,5,18.5,42.5
290,2021-08-09T04:49:00,1,東,3.1,東南東,24.4,97.3,1,4.5,18.5,42.5
291,2021-08-09T04:50:00,1.1,東,3.1,東南東,24.5,97.3,1,4.5,18.5,42.5
292,2021-08-09T04:51:00,1.1,東,2.4,東,24.4,97.4,1,4.5,18.5,42.5
293,2021-08-09T04:52:00,1.1,東,2.4,東,24.5,97.5,0.5,4.5,18.5,42.5
294,2021-08-09T04:53:00,1.1,東,2.4,東,24.5,97.6,1,5,19,43
295,2021-08-09T04:54:00,1.1,東,2.4,東,24.4,97.5,1,5,19,43
296,2021-08-09T04:55:00,1.2,東,2.4,東,24.4,97.5,1,5,19,43
297,2021-08-09T04:56:00,1.3,東,2.8,東,24.5,97.6,1,5,19,43
298,2021-08-09T04:57:00,1.3,東,2.8,東,24.4,97.6,0.5,4.5,19,43
299,2021-08-09T04:58:00,1.4,東,2.8,東,24.5,97.6,0.5,4,19,43
300,2021-08-09T04:59:00,1.5,東,3.9,東,24.5,97.6,0.5,3.5,19,43
301,2021-08-09T05:00:00,1.6,東,3.9,東,24.5,97.6,1,4,19.5,43.5
302,2021-08-09T05:01:00,1.7,東,3.9,東,24.5,97.6,1,3.5,19.5,43.5
303,2021-08-09T05:02:00,1.7,東,3.9,東,24.5,97.6,1,3,19.5,43.5
304,2021-08-09T05:03:00,1.8,東,3.9,東,24.5,97.7,0.5,3,19.5,43.5
305,2021-08-09T05:04:00,1.8,東,4.4,南東,24.6,97.7,0.5,3,19.5,43.5
306,2021-08-09T05:05:00,2,東,5.6,東,24.6,97.7,0.5,3,19.5,43.5
307,2021-08-09T05:06:00,2.2,東,5.6,東,24.6,97.7,0.5,2.5,19.5,43.5
308,2021-08-09T05:07:00,2.3,東,5.6,東,24.6,97.7,1,3,20,44
309,2021-08-09T05:08:00,2.4,東,5.6,東,24.7,97.6,1,3,20,44
310,2021-08-09T05:09:00,2.5,東南東,5.6,東,24.7,97.6,1,3,20,44
311,2021-08-09T05:10:00,2.5,東南東,5.6,東,24.7,97.6,0.5,3,20,44
312,2021-08-09T05:11:00,2.6,東南東,5.6,東,24.7,97.5,0.5,3,20,44
313,2021-08-09T05:12:00,2.7,東南東,5.6,東,24.7,97.4,0.5,3,20,44
314,2021-08-09T05:13:00,2.8,東南東,6,東,24.8,97.3,0.5,3,20,44
315,2021-08-09T05:14:00,2.9,東南東,6,東,24.8,97.1,0.5,3,20,44
316,2021-08-09T05:15:00,2.9,東南東,7.2,東南東,24.8,97,0.5,3,20,44
317,2021-08-09T05:16:00,3.1,東南東,7.2,東南東,24.8,96.9,0.5,3,20,44
318,2021-08-09T05:17:00,3.1,東南東,7.2,東南東,24.8,96.8,0,3,20,44
319,2021-08-09T05:18:00,3.1,東南東,7.2,東南東,24.7,96.7,0,3,20,44
320,2021-08-09T05:19:00,3.1,東南東,7.2,東南東,24.7,96.7,0.5,3.5,20.5,44.5
321,2021-08-09T05:20:00,3.2,東南東,7.2,東南東,24.7,96.7,0.5,3.5,20.5,44.5
322,2021-08-09T05:21:00,3.2,東南東,7.2,東南東,24.8,96.7,0.5,3.5,20.5,44.5
323,2021-08-09T05:22:00,3.2,東南東,7.2,東南東,24.8,96.8,0.5,3.5,20.5,44.5
324,2021-08-09T05:23:00,3.3,東南東,8.5,東南東,24.8,96.8,0.5,3.5,20.5,44.5
325,2021-08-09T05:24:00,3.4,東南東,8.5,東南東,24.8,96.8,0.5,3.5,20.5,44.5
326,2021-08-09T05:25:00,3.2,東南東,8.5,東南東,24.8,96.8,0.5,3.5,20.5,44.5
327,2021-08-09T05:26:00,3.2,東南東,8.5,東南東,24.8,96.7,0.5,3.5,20.5,44.5
328,2021-08-09T05:27:00,3.4,東南東,8.5,東南東,24.8,96.6,0.5,3.5,20.5,44.5
329,2021-08-09T05:28:00,3.4,東南東,8.5,東南東,24.9,96.7,0.5,3.5,20.5,44.5
330,2021-08-09T05:29:00,3.6,東南東,8.5,東南東,24.9,96.7,0,3.5,20.5,44.5
331,2021-08-09T05:30:00,3.6,東南東,8.5,東南東,25,96.8,0,3.5,20.5,44.5
332,2021-08-09T05:31:00,3.6,東南東,8.5,東南東,25.1,96.6,0,3.5,20.5,44.5
333,2021-08-09T05:32:00,3.6,東南東,8.5,東南東,25,96.4,0,3.5,20.5,44.5
334,2021-08-09T05:33:00,3.5,東南東,8.1,東南東,25,96.1,0,3.5,20.5,44.5
335,2021-08-09T05:34:00,3.5,東南東,8.1,東南東,25,96,0,3.5,20.5,44.5
336,2021-08-09T05:35:00,3.6,東南東,8.1,東南東,25,95.9,0,3.5,20.5,44.5
337,2021-08-09T05:36:00,3.5,東南東,8.1,東南東,25.1,96,0,3,20.5,44.5
338,2021-08-09T05:37:00,3.2,東南東,7.6,東南東,25.2,95.9,0,3,20.5,44.5
339,2021-08-09T05:38:00,3.1,東南東,7.6,東南東,25.2,95.7,0,3,20.5,44.5
340,2021-08-09T05:39:00,2.8,東南東,7.6,東南東,25.2,95.5,0,3,20.5,44.5
341,2021-08-09T05:40:00,2.6,東南東,7.6,東南東,25.2,95.4,0,3,20.5,44.5
342,2021-08-09T05:41:00,2.5,東南東,7.6,東南東,25.3,95.4,0,3,20.5,44.5
343,2021-08-09T05:42:00,2.4,東南東,7.6,東南東,25.4,95.3,0,2.5,20.5,44.5
344,2021-08-09T05:43:00,2.1,東,7.6,東南東,25.3,95.1,0,2.5,20.5,44.5
345,2021-08-09T05:44:00,1.9,東,5.7,東北東,25.3,94.9,0,2.5,20.5,44.5
346,2021-08-09T05:45:00,1.7,東,5.7,東北東,25.4,95,0,2.5,20.5,44.5
347,2021-08-09T05:46:00,1.7,東,4.3,東南東,25.5,94.9,0,2.5,20.5,44.5
348,2021-08-09T05:47:00,1.8,東南東,4.3,東南東,25.5,94.2,0,2,20.5,44.5
349,2021-08-09T05:48:00,2,東南東,4.2,南東,25.5,93.7,0,2,20.5,44.5
350,2021-08-09T05:49:00,2.1,東南東,4.6,南東,25.5,93.5,0,2,20.5,44.5
351,2021-08-09T05:50:00,2.3,東南東,6.1,東南東,25.5,93.5,0,2,20.5,44.5
352,2021-08-09T05:51:00,2.3,東南東,6.1,東南東,25.5,93.5,0,2,20.5,44.5
353,2021-08-09T05:52:00,2.5,東南東,6.1,東南東,25.4,93.4,0,2,20.5,44.5
354,2021-08-09T05:53:00,2.6,東南東,6.1,東南東,25.5,93.7,0,1.5,20.5,44.5
355,2021-08-09T05:54:00,2.6,東南東,6.1,東南東,25.4,93.6,0,1.5,20.5,44.5
356,2021-08-09T05:55:00,2.6,南東,6.6,東南東,25.4,93.7,0,1.5,20.5,44.5
357,2021-08-09T05:56:00,2.7,南東,6.6,東南東,25.5,93.8,0,1.5,20.5,44.5
358,2021-08-09T05:57:00,2.8,南東,6.6,東南東,25.6,93.6,0,1.5,20.5,44.5
359,2021-08-09T05:58:00,2.9,東南東,6.6,東南東,25.6,93.2,0,1.5,20.5,44.5
360,2021-08-09T05:59:00,2.8,東南東,6.6,東南東,25.5,93,0,1.5,20.5,44.5
361,2021-08-09T06:00:00,2.7,南東,6.6,東南東,25.4,93.1,0.5,1.5,21,45
362,2021-08-09T06:01:00,2.7,南東,6.6,東南東,25.4,93.4,0.5,1.5,21,45
363,2021-08-09T06:02:00,3.1,南東,7.9,南東,25.5,93.5,0.5,1.5,21,45
364,2021-08-09T06:03:00,3.4,南東,7.9,南東,25.5,93.5,0.5,1.5,21,45
365,2021-08-09T06:04:00,3.7,南東,7.9,南東,25.4,93.2,0.5,1.5,21,45
366,2021-08-09T06:05:00,3.8,南東,7.9,南東,25.4,93.2,1,2,21.5,45.5
367,2021-08-09T06:06:00,3.9,南東,7.9,南東,25.5,93.6,1,2,21.5,45.5
368,2021-08-09T06:07:00,3.8,南東,7.9,南東,25.5,93.6,1,1.5,21.5,45.5
369,2021-08-09T06:08:00,3.7,南東,7.9,南東,25.4,93.6,1,1.5,21.5,45.5
370,2021-08-09T06:09:00,3.6,南東,7.9,南東,25.4,93.8,1,1.5,21.5,45.5
371,2021-08-09T06:10:00,3.5,南東,7.9,南東,25.3,94,0.5,1.5,21.5,45.5
372,2021-08-09T06:11:00,3.5,南東,7.9,南東,25.3,94.4,0.5,1.5,21.5,45.5
373,2021-08-09T06:12:00,3.3,南東,7.7,東,25.4,94.8,0.5,1.5,21.5,45.5
374,2021-08-09T06:13:00,3.1,南東,7.7,東,25.4,94.8,0.5,1.5,21.5,45.5
375,2021-08-09T06:14:00,2.9,南東,7.7,東,25.5,94.7,0.5,1.5,21.5,45.5
376,2021-08-09T06:15:00,2.9,南東,7.7,東,25.5,94.3,0,1.5,21.5,45.5
377,2021-08-09T06:16:00,2.9,南東,6.3,南東,25.5,94.1,0,1.5,21.5,45.5
378,2021-08-09T06:17:00,2.9,南東,6.3,南東,25.5,94,0,1.5,21.5,45.5
379,2021-08-09T06:18:00,3.1,南東,6.3,南東,25.4,93.9,0,1.5,21.5,45.5
380,2021-08-09T06:19:00,3.3,南東,6.8,南東,25.5,94,0,1,21.5,45.5
381,2021-08-09T06:20:00,3.6,南東,7.5,南東,25.5,93.9,0,1,21.5,45.5
382,2021-08-09T06:21:00,3.7,南東,7.5,南東,25.4,93.8,0,1,21.5,45.5
383,2021-08-09T06:22:00,3.7,南東,7.5,南東,25.4,93.9,0,1,21.5,45.5
384,2021-08-09T06:23:00,3.6,南東,7.5,南東,25.3,94.1,0.5,1.5,22,46
385,2021-08-09T06:24:00,3.7,南東,7.5,南東,25.3,94.3,0.5,1.5,22,46
386,2021-08-09T06:25:00,3.6,南東,7.5,南東,25.3,94.6,0.5,1.5,22,46
387,2021-08-09T06:26:00,3.7,南東,9.7,南南東,25.2,94.7,0.5,1.5,22,46
388,2021-08-09T06:27:00,3.9,南東,9.7,南南東,25.3,95.1,0.5,1.5,22,46
389,2021-08-09T06:28:00,3.9,南東,9.7,南南東,25.3,95.2,0.5,1.5,22,46
390,2021-08-09T06:29:00,4.2,南東,11,南東,25.3,95.2,0.5,1.5,22,46
391,2021-08-09T06:30:00,4,南東,11,南東,25.4,95.2,0.5,1.5,22,46
392,2021-08-09T06:31:00,4.1,南東,11,南東,25.4,95.2,1,2,22.5,46.5
393,2021-08-09T06:32:00,4.2,南東,11,南東,25.3,95.1,1,2,22.5,46.5
394,2021-08-09T06:33:00,4.4,南東,11,南東,25.3,95.2,0.5,2,22.5,46.5